Location: Diebersbach
(48.5163°N, 8.0558°E)
Time: 00:39:47
(UTC+00:00)

FENGYUN 1C DEB - Pass Details

Date: 31 January 2022
Orbit: 690 x 984 km, 98.6° (Epoch: 23 May)

Event Time Altitude Azimuth Distance (km) Brightness Sun altitude
Rises 16:51:24 0° 147° (SSE) 3,649 ? -4.9°
Reaches altitude 10° 16:53:53 10° 143° (SE) 2,722 ? -5.3°
Maximum altitude 16:59:52 55° 68° (ENE) 1,180 ? -6.2°
Drops below altitude 10° 17:05:52 10° 353° (N) 2,730 ? -7.2°
Sets 17:08:22 0° 349° (N) 3,661 ? -7.6°
